Regional Weather Roundup
Issued by NWS

Home | Current Version | Previous Version | Graphics & Text | Print | Product List | Glossary On
Versions: 1 2 3 4 5 6 7 8 9 10 11 12 13 14 15 16 17 18 19 20 21 22 23 24 25 26 27 28 29 30 31 32 33 34 35 36 37 38 39 40 41 42 43 44 45 46 47 48 49 50
000
ASUS43 KIND 260359
RWRIN

WEATHER ROUNDUP FOR INDIANA
NATIONAL WEATHER SERVICE INDIANAPOLIS IN
1200 AM EDT SUN APR 26 2015

NOTE: "FAIR" INDICATES FEW OR NO CLOUDS BELOW 12,000 FEET WITH NO
SIGNIFICANT WEATHER AND/OR OBSTRUCTIONS TO VISIBILITY.

* - STATION DOES NOT REPORT WEATHER SUCH AS PRECIPITATION OR FOG.

+ - STATION NOT QUALITY CONTROLLED BY THE NATIONAL WEATHER SERVICE.
    USE DATA WITH CAUTION...ESPECIALLY DEWPOINT AND RELATIVE
    HUMIDITY OBSERVATIONS.

INZ001>003-010>013-019-020-260500-
NORTHWEST INDIANA

CITY           SKY/WX    TMP DP  RH WIND       PRES   REMARKS
GARY /AIRPORT/ CLOUDY    42  33  72 N5        29.84S
KNOX *+        CLOUDY    41  28  60 N6        29.82R

$$

LMZ046-743>745-260500-
SOUTHERN LAKE MICHIGAN

STATION/POSITION TIME  TEMP    WIND        PRES    WAVE
                       AIR SEA DIR/SP/G            HT
                 (UTC) (F)     (DEG/KT/KT) (MB)    (FT)
BURNS HARBOR     0300   41      50/ 10/ 11 1010.8R
MICHIGAN CITY    0300   40      10/ 10/ 11   N/A
5NW MICH CITY    0300   40 45   30/  8/ 12   N/A     2

$$

INZ004-005-014>016-021>024-260500-
NORTH CENTRAL INDIANA

CITY           SKY/WX    TMP DP  RH WIND       PRES   REMARKS
GOSHEN         MOCLDY    42  34  73 CALM      29.81R
SOUTH BEND     MOCLDY    40  35  83 NW3       29.83R
WARSAW +       CLOUDY    41  34  75 N3        29.81R

$$

INZ006>009-017-018-025>027-260500-
NORTHEAST INDIANA

CITY           SKY/WX    TMP DP  RH WIND       PRES   REMARKS
ANGOLA *+      MOCLDY    41  34  75 CALM      29.80R
FORT WAYNE     CLOUDY    41  36  82 N6        29.80R

$$

INZ028-029-035-036-043>045-051>053-260500-
WEST CENTRAL INDIANA

CITY           SKY/WX    TMP DP  RH WIND       PRES   REMARKS
CRAWFORDSVL +  CLOUDY    42  36  79 NE13G18   29.75R
GREENCASTLE +  CLOUDY    45  37  76 NE12      29.73R
LAFAYETTE      CLOUDY    43  38  82 NE13      29.77R
TERRE HAUTE    CLOUDY    47  41  80 NE12G20   29.73R

$$

INZ030>032-037>040-046>048-054>057-064-065-260500-
CENTRAL INDIANA

CITY           SKY/WX    TMP DP  RH WIND       PRES   REMARKS
FRANKFORT +    CLOUDY    43  39  86 NE13G23   29.78R
GREENWOOD *+   CLOUDY    45  39  81 NE14      29.72R
INDIANAPOLIS   CLOUDY    45  39  79 NE17      29.71R
-EAGLE CREEK   CLOUDY    44  39  82 NE13      29.73R
KOKOMO *+      MOCLDY    43  34  70 NE12      29.78R
MT COMFORT *+  CLOUDY    43  43 100 NE17G23   29.73R
SHELBYVILLE    CLOUDY    47  40  76 NE18G25   29.71R

$$

INZ033-034-041-042-049-050-058-059-260500-
EAST CENTRAL INDIANA

CITY           SKY/WX    TMP DP  RH WIND       PRES   REMARKS
MUNCIE         CLOUDY    42  34  73 NE14      29.75R

$$

INZ060-061-067>069-081>083-085>088-260500-
SOUTHWEST INDIANA

CITY           SKY/WX    TMP DP  RH WIND       PRES   REMARKS
EVANSVILLE     CLOUDY    54  51  90 N12       29.64R FOG
HUNTINGBURG *+ CLOUDY    48  45  87 N14       29.64R

$$

INZ062-063-066-070>080-084-089>092-260500-
SOUTH CENTRAL AND SOUTHEAST INDIANA

CITY           SKY/WX    TMP DP  RH WIND       PRES   REMARKS
BLOOMINGTON    CLOUDY    46  42  86 NE10G22   29.69R
MADISON *+     CLOUDY    45  41  87 NE14      29.67R
SEYMOUR +      CLOUDY    46  45  93 NE9       29.68R

$$




USA.gov is the U.S. government's official web portal to all federal, state and local government web resources and services.